Location: Blekslage
(52.9899°N, 7.0643°E)
Time: 05:53:44
(UTC+00:00)

Daily predictions for brighter satellites

Satellite Brightness Start Highest point End
(mag) Time Altitude Azimuth Time Altitude Azimuth Time Altitude Azimuth
Cosmos 2227 Rocket 2.6 00:01:00 10° NW 00:06:24 46° WSW 00:09:27 24° S
Cosmos 1844 Rocket 4.2 00:02:13 10° NNW 00:07:24 35° NE 00:12:32 10° ESE
GEOS 3 Rocket 3.8 00:07:25 10° NE 00:12:41 78° NW 00:17:31 13° SW
Cosmos 1238 Rocket 4.4 00:11:30 10° N 00:16:30 43° ENE 00:20:48 12° SE
IDEFIX/ARIANE 42P 4.2 00:13:25 10° NE 00:17:33 24° E 00:21:27 11° SE
Landsat 4 4.2 00:18:24 20° SE 00:19:53 37° ENE 00:22:30 10° N
Cosmos 1441 Rocket 3.6 00:20:22 26° SW 00:21:56 46° WNW 00:25:17 10° N
Meteor 2-2 Rocket 4.4 00:19:00 10° NNW 00:24:31 59° W 00:28:00 23° SSW
Cosmos 2221 3.0 00:21:14 10° N 00:25:27 54° ENE 00:28:33 17° SSE
Cosmos 1315 Rocket 3.9 00:25:29 10° NNW 00:28:49 29° W 00:30:17 22° SW
Okean 1 3.2 00:26:12 10° N 00:29:58 77° ENE 00:32:02 25° SSE
SeaSat 1 4.0 00:26:51 10° ESE 00:31:19 36° NE 00:35:47 10° NNW
Cosmos 1812 Rocket 3.6 00:28:03 10° N 00:32:28 77° E 00:35:21 21° SSE
Geosat 4.0 00:28:05 10° NNE 00:33:08 85° NW 00:36:37 20° SW
Meteor 1-26 Rocket 4.4 00:28:12 10° NNW 00:33:28 54° W 00:36:44 23° SSW
Cosmos 1125 Rocket 3.5 00:30:24 22° SSW 00:33:52 82° WNW 00:39:10 10° NNE
Nadezhda 1 Rocket 4.0 00:29:49 10° N 00:36:06 90° ESE 00:40:50 18° S
Cosmos 1932 4.5 00:31:36 18° SW 00:36:29 88° SE 00:42:56 10° NE
Meteor 2-6 Rocket 4.3 00:33:42 10° NNW 00:39:31 86° W 00:44:02 18° S
Cosmos 2150 Rocket 4.5 00:36:24 21° S 00:39:52 55° ESE 00:45:11 10° NNE
CENTAUR R/B 4.2 00:37:34 10° SSE 00:41:21 18° ESE 00:45:39 10° ENE
Cosmos 2058 Rocket 4.3 00:38:03 10° NNW 00:41:53 29° W 00:44:04 19° SW
H-2A R/B 2.2 00:41:17 25° S 00:43:23 70° WSW 00:47:20 10° NNW
Okean 1-7 Rocket 4.0 00:42:59 20° SSE 00:45:54 56° E 00:50:22 10° NNE
Cosmos 614 Rocket 4.5 00:41:23 10° NW 00:46:07 42° WSW 00:48:55 22° SSW
Cosmos 2322 Rocket 4.3 00:44:14 10° SE 00:47:40 17° E 00:51:07 10° ENE
ADEOS II 4.5 00:46:14 10° NE 00:48:52 14° E 00:51:31 10° ESE
Cosmos 1745 Rocket 4.1 00:44:17 19° S 00:49:01 77° E 00:55:24 10° NNE
ATLAS 5 CENTAUR R/B 2.0 00:45:47 10° NW 00:49:56 67° NE 00:55:06 10° ESE
BREEZE-M DEB (TANK) 4.3 00:50:11 10° W 00:50:49 13° WSW 00:50:49 13° WSW
CZ-4C R/B 4.2 00:49:36 10° WNW 00:54:27 32° N 01:00:31 10° ENE
Cosmos 2263 Rocket 2.8 00:50:19 10° NW 00:55:28 37° WSW 00:58:41 20° SSW
MOZ.5/SAFIR/RUBIN 5/SL-8 4.4 00:52:21 10° SSE 00:56:54 57° ENE 01:01:31 10° N
CZ-2C R/B 2.9 00:56:02 10° N 01:00:48 69° WNW 01:04:01 20° SSW
Meteor 1-27 Rocket 4.4 00:56:15 10° N 01:02:08 58° ENE 01:07:57 10° SSE
Cosmos 2082 4.0 00:56:44 10° NW 01:02:13 50° WSW 01:06:25 17° S
Cosmos 1709 Rocket 4.2 00:57:16 16° S 01:02:22 71° E 01:08:38 10° NNE
USA 32 4.1 01:00:07 20° SSW 01:03:43 71° W 01:08:58 10° N
Cosmos 192 4.4 01:00:29 20° SSW 01:03:53 77° WNW 01:08:50 10° NNE
Cosmos 2369 3.7 01:01:32 20° SSW 01:05:35 79° ESE 01:11:16 10° NNE
MSX 4.4 01:00:03 10° NNE 01:05:39 52° E 01:10:26 14° S
Cosmos 1602 Rocket 3.6 01:07:34 21° SSW 01:10:22 70° WNW 01:14:44 10° N
Cosmos 2298 Rocket 4.0 01:07:44 19° SSW 01:11:33 88° ESE 01:16:54 10° NNE
Cosmos 1758 Rocket 4.1 01:09:37 20° SW 01:12:28 49° WNW 01:16:49 10° N
Cosmos 1626 Rocket 4.4 01:11:27 18° SW 01:14:19 39° WNW 01:18:28 10° N
Cosmos 2219 4.1 01:12:29 10° NW 01:17:25 32° WSW 01:20:47 17° SSW
SL-16 R/B 3.0 01:13:38 14° S 01:18:04 42° ESE 01:23:23 10° NE
USA 290 4.0 01:16:45 10° WNW 01:18:59 17° WSW 01:19:33 16° WSW
Meteor 1-10 Rocket 4.3 01:14:12 10° NNW 01:19:57 77° W 01:25:25 12° S
Cosmos 2333 Rocket 3.6 01:15:37 10° SSE 01:20:28 30° ESE 01:25:19 10° NE
Cosmos 1842 Rocket 4.2 01:17:24 10° N 01:21:46 55° ENE 01:26:03 10° SSE
USA 276 4.1 01:22:20 12° SSE 01:22:20 12° SSE 01:23:22 10° SE
Spot 2 4.4 01:20:18 20° SSW 01:22:47 43° W 01:26:37 10° NNW
BREEZE M DEB (TANK) 2.9 01:21:29 17° WSW 01:23:02 35° S 01:26:55 10° ESE
BREEZE-M DEB 4.3 01:08:27 10° W 01:23:42 65° SSW 01:27:44 10° ESE
ATLAS 2AS CENTAUR R/B 3.3 01:18:07 10° NW 01:24:03 34° WSW 01:29:12 13° S
Meteor 2-4 Rocket 4.4 01:20:14 10° N 01:25:31 52° ENE 01:30:43 10° SSE
Cosmos 44 Rocket 4.3 01:25:06 15° S 01:28:26 34° ESE 01:32:44 10° NE
Cosmos 1707 3.5 01:25:24 10° N 01:28:32 41° ENE 01:31:40 10° SSE
Cosmos 921 Rocket 3.9 01:24:41 10° NW 01:28:37 32° W 01:31:10 18° SSW
Cosmos 1980 Rocket 2.8 01:25:56 13° SW 01:30:53 52° NW 01:36:24 10° NNE
Cosmos 1743 2.6 01:28:38 17° S 01:31:03 65° E 01:34:24 10° NNE
NPP 3.8 01:27:21 10° NNE 01:32:46 74° ESE 01:37:31 14° S
Cosmos 1697 Rocket 4.2 01:31:33 10° W 01:36:30 30° NW 01:41:30 10° NNE
Lacrosse 5 rocket 3.1 01:35:41 10° W 01:37:12 13° WSW 01:37:12 13° WSW
Meteor 1-20 Rocket 4.3 01:33:05 14° S 01:38:07 88° ESE 01:43:53 10° NNE
KORONAS-FOTON 3.9 01:34:48 10° N 01:38:21 68° ENE 01:41:51 10° SSE
Cosmos 2151 3.3 01:35:22 17° SSW 01:38:21 53° WNW 01:42:24 10° N
Cosmos 1023 Rocket 4.4 01:33:29 10° NNW 01:38:39 76° WSW 01:43:50 10° SSE
Cosmos 1140 Rocket 3.4 01:35:33 10° NNW 01:40:44 78° WSW 01:45:54 10° SSE
CZ-2C R/B 4.0 01:37:53 14° SW 01:41:23 25° W 01:45:56 10° NW
Resurs 1-4 Rocket 2.8 01:37:39 10° NNE 01:42:50 49° E 01:47:59 10° S
GENESIS II 4.2 01:44:58 14° WSW 01:47:05 42° NW 01:49:44 10° NE
Cosmos 1842 3.3 01:44:28 10° N 01:47:52 63° ENE 01:51:15 10° SSE
Cosmos 1076 Rocket 3.5 01:46:03 13° S 01:49:47 88° E 01:54:03 10° NNE
Cosmos 1844 Rocket 2.8 01:46:04 10° NW 01:51:36 59° WSW 01:57:04 10° SSE
SJ 16-02 4.2 01:48:43 10° N 01:51:56 20° NE 01:55:07 10° E
Cosmos 1238 Rocket 4.3 01:48:25 10° NNW 01:53:04 33° W 01:56:48 13° SSW
Cosmos 407 Rocket 3.6 01:50:23 10° NNW 01:55:39 83° ENE 02:00:58 10° SSE
Cosmos 1844 3.8 01:50:20 10° NW 01:55:55 60° WSW 02:01:34 10° SSE
CZ-2D R/B 2.6 01:51:16 10° NNE 01:56:27 57° ESE 02:01:32 10° S
IDEFIX/ARIANE 42P 2.7 01:52:19 10° N 01:57:28 64° WNW 02:02:09 12° SSW
Cosmos 1151 Rocket 4.2 01:53:41 10° N 01:57:50 42° ENE 02:01:55 10° SE
H-2A R/B 2.1 01:57:01 10° NNE 02:01:17 83° ESE 02:05:29 11° SSW
Cosmos 2184 Rocket 4.4 01:55:17 10° S 02:01:35 67° E 02:07:55 10° NNE
Cosmos 2221 4.1 01:59:07 10° NW 02:02:11 20° W 02:04:55 11° SW
Cosmos 2237 4.3 01:58:13 12° SW 02:03:26 74° WNW 02:09:10 10° NNE
Cosmos 1953 Rocket 3.7 02:04:16 12° SSW 02:08:12 61° WNW 02:12:30 10° N
SeaSat 1 2.6 02:03:49 10° SSE 02:08:35 52° WSW 02:13:23 10° NW
Cosmos 2360 Rocket 2.8 02:03:21 10° S 02:08:46 52° ESE 02:14:13 10° NE
Cosmos 1346 Rocket 3.4 02:09:59 12° SW 02:13:06 39° WNW 02:16:38 10° N
Cosmos 2278 3.7 02:08:06 11° SSW 02:13:31 87° WNW 02:19:14 10° NNE
Cosmos 2154 Rocket 4.3 02:07:44 10° S 02:13:58 71° E 02:20:17 10° NNE
Cosmos 1733 2.7 02:14:22 12° SSW 02:17:04 59° WNW 02:20:02 10° N
Molniya-1 4.4 02:19:21 10° SW 02:22:56 85° SE 02:33:19 10° NE
Cosmos 2219 Rocket 3.2 02:18:20 10° S 02:23:31 41° ESE 02:28:43 10° NE
H-2A R/B 3.7 02:19:50 10° NNE 02:24:07 29° E 02:28:21 10° SSE
Cosmos 2074 Rocket 4.0 02:20:34 10° S 02:26:47 84° WNW 02:33:04 10° N
ADEOS II 2.3 02:24:04 10° NNE 02:29:21 76° ESE 02:34:35 10° SSW
Cosmos 1954 Rocket 4.5 02:24:15 10° NNW 02:29:26 67° ENE 02:34:36 10° SE
Cosmos 405 Rocket 4.3 02:27:08 10° SSE 02:29:52 25° E 02:32:37 10° NE
CENTAUR R/B 2.7 02:24:46 10° SW 02:30:31 76° SE 02:37:49 10° NE
Cosmos 2322 Rocket 2.3 02:25:12 10° SSW 02:30:51 82° ESE 02:36:31 10° NNE
ALOS 2.3 02:27:18 10° NNE 02:31:55 81° ESE 02:36:29 10° SSW
ATLAS 5 CENTAUR R/B 2.7 02:28:44 10° WNW 02:32:39 29° SW 02:37:18 10° S
Meteor 2-13 Rocket 4.5 02:27:33 10° NNW 02:33:42 84° W 02:39:51 10° S
Meteor 1-28 Rocket 3.8 02:33:37 10° SSE 02:36:54 54° ENE 02:40:12 10° N
Meteor 1-18 Rocket 4.2 02:32:13 10° NNW 02:37:46 70° W 02:43:16 10° S
Cosmos 2251 Rocket 3.5 02:33:01 10° NNW 02:38:19 74° WSW 02:43:34 10° SSE
Envisat 3.1 02:38:00 10° NNE 02:43:07 85° ESE 02:48:11 10° SSW
NOSS 3-2 (A) 3.9 02:38:33 10° SSW 02:43:29 49° SE 02:49:23 10° NE
DMSP B5D2-2 4.1 02:38:54 10° S 02:44:06 68° WSW 02:49:20 10° NNW
CZ-4C R/B 4.2 02:38:32 10° NW 02:44:16 40° NNE 02:51:28 10° E
